Location: Newark
(41.7772°N, 74.7403°W)
Time: 22:15:04
(UTC+00:00)

Vanguard 2 Rocket - Visible Passes

Search period start: 25 May 2020 00:00
Search period end: 04 June 2020 00:00
Orbit: 555 x 3325 km, 32.9° (Epoch: 24 May)

Date Brightness Start Highest point End Pass type
(mag) Time Alt. Az. Time Alt. Az. Time Alt. Az.
25 May 9.6 00:23:28 10° W 00:38:23 62° S 00:58:16 10° ESE visible
25 May 9.9 02:38:48 10° W 02:55:33 45° SSW 03:06:04 28° SSE visible
25 May 10.3 04:58:33 10° W 05:11:03 21° SW 05:11:48 21° SW visible
26 May 9.8 01:37:55 10° W 01:53:52 52° SSW 02:09:09 19° SE visible
26 May 10.1 03:55:16 10° W 04:10:08 29° SW 04:14:53 26° SSW visible
27 May 9.7 00:37:34 10° W 00:52:10 57° SSW 01:11:41 10° ESE visible
27 May 10.1 02:53:20 10° W 03:08:53 36° SSW 03:18:00 26° S visible
27 May 10.6 05:17:00 10° WSW 05:23:45 13° SW 05:23:45 13° SW visible
28 May 9.9 01:52:14 10° W 02:07:26 43° SSW 02:21:10 20° SSE visible
28 May 10.4 04:11:13 10° W 04:23:13 20° SW 04:26:55 19° SSW visible
29 May 9.8 00:51:48 10° W 01:05:54 50° SSW 01:24:23 11° SE visible
29 May 10.3 03:08:23 10° W 03:22:11 27° SW 03:30:08 21° S visible
30 May 10.1 02:06:53 10° W 02:20:55 35° SSW 02:33:24 18° SSE visible
30 May 10.7 04:30:10 10° WSW 04:36:21 12° SW 04:39:09 12° SW visible
31 May 9.9 01:06:12 10° W 01:19:35 41° SSW 01:36:43 11° SE visible
31 May 10.5 03:24:35 10° WSW 03:35:28 19° SW 03:42:29 15° SSW visible
01 Jun 10.4 02:22:06 10° W 02:34:24 26° SW 02:45:51 15° S visible
02 Jun 10.1 01:20:58 10° W 01:33:14 32° SSW 01:49:13 10° SSE visible
02 Jun 10.8 03:44:48 10° WSW 03:48:50 11° SW 03:53:00 10° SSW visible
03 Jun 10.6 02:38:40 10° WSW 02:47:55 17° SW 02:58:27 10° S visible
